| time (UTC) | temp F | wind direction | speed MPH | gust MPH | rain 1hr in | rain 24hr in | rain mn in | humidity % | barometer mb |
| 20260505173224 | 55 | 356 | 6.0 | 7.0 | 0.00 | 0.00 | 0.00 | 37 | 1007.7 |
| 20260505172721 | 54 | 346 | 6.0 | 11.0 | 0.00 | 0.00 | 0.00 | 38 | 1007.7 |
| 20260505172218 | 54 | 318 | 6.0 | 10.0 | 0.00 | 0.00 | 0.00 | 37 | 1007.5 |
| 20260505171712 | 54 | 310 | 8.0 | 10.0 | 0.00 | 0.00 | 0.00 | 36 | 1007.8 |
| 20260505171210 | 53 | 324 | 5.0 | 8.0 | 0.00 | 0.00 | 0.00 | 39 | 1007.9 |
| 20260505170706 | 54 | 258 | 4.0 | 6.0 | 0.00 | 0.00 | 0.00 | 37 | 1007.7 |
| 20260505170203 | 54 | 0 | 6.0 | 10.0 | 0.00 | 0.00 | 0.00 | 40 | 1007.7 |
| 20260505165658 | 54 | 272 | 5.0 | 6.0 | 0.00 | 0.00 | 0.00 | 36 | 1007.9 |
| 20260505165154 | 53 | 323 | 3.0 | 6.0 | 0.00 | 0.00 | 0.00 | 40 | 1008.0 |
| 20260505164650 | 52 | 320 | 2.0 | 2.0 | 0.00 | 0.00 | 0.00 | 41 | 1008.1 |
| 20260505164147 | 52 | 2 | 7.0 | 9.0 | 0.00 | 0.00 | 0.00 | 40 | 1007.9 |
| 20260505163645 | 53 | 323 | 9.0 | 11.0 | 0.00 | 0.00 | 0.00 | 41 | 1007.6 |
| 20260505163143 | 52 | 301 | 5.0 | 7.0 | 0.00 | 0.00 | 0.00 | 41 | 1007.8 |
| 20260505162640 | 52 | 347 | 2.0 | 3.0 | 0.00 | 0.00 | 0.00 | 41 | 1007.9 |
| 20260505162138 | 52 | 323 | 3.0 | 5.0 | 0.00 | 0.00 | 0.00 | 43 | 1008.0 |
| 20260505161634 | 52 | 213 | 5.0 | 6.0 | 0.00 | 0.00 | 0.00 | 43 | 1008.1 |
| 20260505161132 | 52 | 256 | 3.0 | 5.0 | 0.00 | 0.00 | 0.00 | 42 | 1008.1 |
| 20260505160629 | 51 | 336 | 6.0 | 8.0 | 0.00 | 0.00 | 0.00 | 41 | 1008.1 |
| 20260505160127 | 51 | 304 | 5.0 | 7.0 | 0.00 | 0.00 | 0.00 | 40 | 1008.2 |
| 20260505153107 | 52 | 238 | 5.0 | 8.0 | 0.00 | 0.00 | 0.00 | 37 | 1008.0 |
| 20260505152603 | 51 | 331 | 2.0 | 3.0 | 0.00 | 0.00 | 0.00 | 40 | 1007.8 |
| 20260505152058 | 52 | 342 | 11.0 | 11.0 | 0.00 | 0.00 | 0.00 | 37 | 1007.8 |
| 20260505151554 | 51 | 251 | 3.0 | 5.0 | 0.00 | 0.00 | 0.00 | 35 | 1007.5 |
| 20260505151052 | 51 | 252 | 2.0 | 2.0 | 0.00 | 0.00 | 0.00 | 40 | 1007.6 |
| 20260505150548 | 51 | 243 | 5.0 | 8.0 | 0.00 | 0.00 | 0.00 | 39 | 1007.5 |
| 20260505140513 | 50 | 220 | 3.0 | 3.0 | 0.00 | 0.00 | 0.00 | 45 | 1008.1 |
| 20260505124926 | 48 | 274 | 2.0 | 2.0 | 0.00 | 0.00 | 0.00 | 52 | 1008.0 |
| 20260505124423 | 47 | 277 | 2.0 | 2.0 | 0.00 | 0.00 | 0.00 | 52 | 1007.8 |
| 20260505123919 | 46 | 287 | 2.0 | 5.0 | 0.00 | 0.00 | 0.00 | 50 | 1008.0 |
| 20260505123416 | 46 | 305 | 5.0 | 6.0 | 0.00 | 0.00 | 0.00 | 50 | 1008.0 |
| 20260505122912 | 46 | 313 | 3.0 | 3.0 | 0.00 | 0.00 | 0.00 | 51 | 1007.9 |
| 20260505122410 | 46 | 292 | 2.0 | 3.0 | 0.00 | 0.00 | 0.00 | 50 | 1007.9 |
| 20260505121906 | 46 | 233 | 1.0 | 1.0 | 0.00 | 0.00 | 0.00 | 50 | 1008.0 |
| 20260505121403 | 47 | 275 | 1.0 | 2.0 | 0.00 | 0.00 | 0.00 | 51 | 1007.7 |
| 20260505120859 | 46 | 267 | 3.0 | 5.0 | 0.00 | 0.00 | 0.00 | 51 | 1007.6 |
| 20260505120355 | 46 | 237 | 0.0 | 0.0 | 0.00 | 0.00 | 0.00 | 53 | 1007.7 |
| 20260505115854 | 45 | 251 | 3.0 | 3.0 | 0.00 | 0.00 | 0.00 | 55 | 1007.4 |
| 20260505115352 | 46 | 253 | 2.0 | 2.0 | 0.00 | 0.00 | 0.00 | 54 | 1007.6 |
| 20260505114849 | 46 | 223 | 0.0 | 1.0 | 0.00 | 0.00 | 0.00 | 55 | 1007.1 |
| 20260505114345 | 46 | 220 | 1.0 | 2.0 | 0.00 | 0.00 | 0.00 | 55 | 1006.7 |
| 20260505113842 | 46 | 235 | 0.0 | 0.0 | 0.00 | 0.00 | 0.00 | 56 | 1006.7 |
| 20260505113339 | 46 | 251 | 1.0 | 1.0 | 0.00 | 0.00 | 0.00 | 55 | 1006.5 |
| 20260505112834 | 45 | 244 | 0.0 | 0.0 | 0.00 | 0.00 | 0.00 | 54 | 1006.3 |
| 20260505112332 | 45 | 233 | 0.0 | 0.0 | 0.00 | 0.00 | 0.00 | 55 | 1006.0 |
| 20260505111827 | 45 | 254 | 0.0 | 1.0 | 0.00 | 0.00 | 0.00 | 56 | 1005.8 |
| 20260505111323 | 44 | 245 | 0.0 | 0.0 | 0.00 | 0.00 | 0.00 | 57 | 1005.7 |
| 20260505110819 | 44 | 236 | 0.0 | 0.0 | 0.00 | 0.00 | 0.00 | 57 | 1006.0 |
| 20260505110317 | 45 | 236 | 0.0 | 0.0 | 0.00 | 0.00 | 0.00 | 55 | 1005.9 |
| 20260505101751 | 46 | 297 | 1.0 | 1.0 | 0.00 | 0.00 | 0.00 | 54 | 1005.8 |
| 20260505101247 | 46 | 268 | 2.0 | 2.0 | 0.00 | 0.00 | 0.00 | 53 | 1005.9 |
| 20260505100743 | 46 | 273 | 1.0 | 2.0 | 0.00 | 0.00 | 0.00 | 53 | 1006.0 |
| 20260505100240 | 46 | 256 | 1.0 | 3.0 | 0.00 | 0.00 | 0.00 | 54 | 1005.8 |
| 20260505095735 | 46 | 267 | 2.0 | 3.0 | 0.00 | 0.00 | 0.00 | 54 | 1005.6 |
| 20260505095234 | 46 | 288 | 0.0 | 1.0 | 0.00 | 0.00 | 0.00 | 55 | 1005.6 |
| 20260505094729 | 46 | 272 | 3.0 | 5.0 | 0.00 | 0.00 | 0.00 | 55 | 1005.5 |
| 20260505094226 | 46 | 310 | 3.0 | 3.0 | 0.00 | 0.00 | 0.00 | 55 | 1005.5 |
| 20260505093722 | 46 | 258 | 1.0 | 2.0 | 0.00 | 0.00 | 0.00 | 54 | 1005.5 |
| 20260505093220 | 46 | 295 | 2.0 | 3.0 | 0.00 | 0.00 | 0.00 | 54 | 1005.4 |
| 20260505092716 | 47 | 285 | 2.0 | 2.0 | 0.00 | 0.00 | 0.00 | 53 | 1005.5 |
| 20260505092215 | 47 | 246 | 1.0 | 3.0 | 0.00 | 0.00 | 0.00 | 53 | 1005.6 |
| 20260505091712 | 47 | 309 | 1.0 | 2.0 | 0.00 | 0.00 | 0.00 | 52 | 1005.7 |
| 20260505091210 | 47 | 319 | 3.0 | 3.0 | 0.00 | 0.00 | 0.00 | 51 | 1005.6 |
| 20260505090707 | 46 | 285 | 1.0 | 1.0 | 0.00 | 0.00 | 0.00 | 52 | 1005.5 |
| 20260505090205 | 46 | 267 | 0.0 | 0.0 | 0.00 | 0.00 | 0.00 | 54 | 1005.7 |
| 20260505085702 | 47 | 321 | 1.0 | 2.0 | 0.00 | 0.00 | 0.00 | 53 | 1005.7 |
| 20260505085201 | 47 | 280 | 2.0 | 3.0 | 0.00 | 0.00 | 0.00 | 53 | 1005.7 |
| 20260505084658 | 47 | 284 | 0.0 | 1.0 | 0.00 | 0.00 | 0.00 | 53 | 1005.4 |
| 20260505084156 | 47 | 262 | 2.0 | 3.0 | 0.00 | 0.00 | 0.00 | 52 | 1005.3 |
| 20260505083653 | 47 | 259 | 2.0 | 3.0 | 0.00 | 0.00 | 0.00 | 51 | 1005.1 |
| 20260505083149 | 48 | 350 | 6.0 | 8.0 | 0.00 | 0.00 | 0.00 | 50 | 1004.9 |
| 20260505082645 | 48 | 357 | 5.0 | 6.0 | 0.00 | 0.00 | 0.00 | 50 | 1004.9 |
| 20260505082143 | 48 | 358 | 4.0 | 5.0 | 0.00 | 0.00 | 0.00 | 50 | 1004.8 |
| 20260505081638 | 48 | 322 | 5.0 | 7.0 | 0.00 | 0.00 | 0.00 | 50 | 1004.5 |
| 20260505081136 | 48 | 316 | 3.0 | 5.0 | 0.00 | 0.00 | 0.00 | 51 | 1004.5 |
| 20260505080633 | 48 | 290 | 3.0 | 3.0 | 0.00 | 0.00 | 0.00 | 51 | 1004.3 |
| 20260505080129 | 48 | 322 | 3.0 | 3.0 | 0.00 | 0.00 | 0.00 | 52 | 1004.5 |
| 20260505075625 | 48 | 342 | 3.0 | 3.0 | 0.00 | 0.00 | 0.00 | 53 | 1004.2 |
| 20260505075122 | 48 | 6 | 6.0 | 9.0 | 0.00 | 0.00 | 0.00 | 52 | 1004.0 |
| 20260505074619 | 48 | 303 | 5.0 | 6.0 | 0.00 | 0.00 | 0.00 | 52 | 1003.9 |
| 20260505074116 | 48 | 28 | 3.0 | 6.0 | 0.00 | 0.00 | 0.00 | 53 | 1003.7 |
| 20260505073614 | 48 | 315 | 2.0 | 3.0 | 0.00 | 0.00 | 0.00 | 53 | 1003.7 |
| 20260505073112 | 49 | 2 | 7.0 | 8.0 | 0.00 | 0.00 | 0.00 | 51 | 1003.3 |
| 20260505072607 | 49 | 21 | 5.0 | 7.0 | 0.00 | 0.00 | 0.00 | 51 | 1003.3 |
| 20260505072104 | 49 | 325 | 5.0 | 7.0 | 0.00 | 0.00 | 0.00 | 51 | 1003.3 |
| 20260505071559 | 49 | 287 | 1.0 | 2.0 | 0.00 | 0.00 | 0.00 | 51 | 1003.5 |
| 20260505071057 | 49 | 336 | 3.0 | 3.0 | 0.00 | 0.00 | 0.00 | 50 | 1003.7 |
| 20260505070554 | 49 | 256 | 2.0 | 2.0 | 0.00 | 0.00 | 0.00 | 50 | 1003.5 |
| 20260505070050 | 50 | 341 | 5.0 | 9.0 | 0.00 | 0.00 | 0.00 | 50 | 1003.4 |
| 20260505065546 | 50 | 339 | 5.0 | 7.0 | 0.00 | 0.00 | 0.00 | 49 | 1003.3 |
| 20260505065043 | 50 | 310 | 5.0 | 8.0 | 0.00 | 0.00 | 0.00 | 50 | 1003.1 |
| 20260505064540 | 50 | 314 | 6.0 | 9.0 | 0.00 | 0.00 | 0.00 | 48 | 1003.5 |
| 20260505064039 | 50 | 4 | 7.0 | 8.0 | 0.00 | 0.00 | 0.00 | 48 | 1003.2 |
| 20260505063536 | 50 | 325 | 5.0 | 6.0 | 0.00 | 0.00 | 0.00 | 49 | 1002.9 |
| 20260505063031 | 51 | 333 | 10.0 | 11.0 | 0.00 | 0.00 | 0.00 | 47 | 1003.1 |
| 20260505062528 | 51 | 309 | 9.0 | 10.0 | 0.00 | 0.00 | 0.00 | 48 | 1003.0 |
| 20260505062026 | 51 | 315 | 8.0 | 13.0 | 0.00 | 0.00 | 0.00 | 47 | 1002.8 |
| 20260505061523 | 51 | 307 | 5.0 | 9.0 | 0.00 | 0.00 | 0.00 | 49 | 1002.7 |
| 20260505061021 | 52 | 287 | 4.0 | 6.0 | 0.00 | 0.00 | 0.00 | 49 | 1002.7 |
| 20260505060518 | 52 | 80 | 7.0 | 9.0 | 0.00 | 0.00 | 0.00 | 49 | 1002.7 |
| 20260505060014 | 52 | 359 | 13.0 | 16.0 | 0.00 | 0.00 | 0.00 | 48 | 1002.9 |
| 20260505055510 | 52 | 338 | 6.0 | 7.0 | 0.00 | 0.00 | 0.00 | 49 | 1002.6 |
| 20260505055006 | 52 | 347 | 9.0 | 11.0 | 0.00 | 0.00 | 0.00 | 47 | 1002.5 |
| 20260505054504 | 53 | 351 | 7.0 | 10.0 | 0.00 | 0.00 | 0.00 | 48 | 1002.5 |
| 20260505054002 | 53 | 355 | 14.0 | 16.0 | 0.00 | 0.00 | 0.00 | 48 | 1002.4 |
| 20260505053459 | 53 | 329 | 11.0 | 16.0 | 0.00 | 0.00 | 0.00 | 49 | 1002.4 |
| 20260505052955 | 53 | 336 | 7.0 | 9.0 | 0.00 | 0.00 | 0.00 | 50 | 1002.4 |
| 20260505052453 | 54 | 316 | 5.0 | 8.0 | 0.00 | 0.00 | 0.00 | 50 | 1002.2 |
| 20260505051949 | 54 | 14 | 11.0 | 14.0 | 0.00 | 0.00 | 0.00 | 49 | 1002.4 |
| 20260505051446 | 55 | 11 | 6.0 | 8.0 | 0.00 | 0.00 | 0.00 | 49 | 1002.1 |
| 20260505050945 | 55 | 333 | 7.0 | 9.0 | 0.00 | 0.00 | 0.00 | 50 | 1002.1 |
| 20260505050443 | 55 | 343 | 13.0 | 15.0 | 0.00 | 0.00 | 0.00 | 49 | 1002.0 |
| 20260505041411 | 56 | 254 | 3.0 | 5.0 | 0.00 | 0.00 | 0.00 | 48 | 1001.3 |
| 20260505040908 | 56 | 269 | 2.0 | 3.0 | 0.00 | 0.00 | 0.00 | 49 | 1001.3 |
| 20260505040405 | 56 | 274 | 1.0 | 1.0 | 0.00 | 0.00 | 0.00 | 49 | 1001.1 |
| 20260505035902 | 56 | 249 | 0.0 | 1.0 | 0.00 | 0.00 | 0.00 | 49 | 1001.2 |
| 20260505035357 | 56 | 275 | 4.0 | 6.0 | 0.00 | 0.00 | 0.00 | 48 | 1001.6 |
| 20260505034855 | 57 | 242 | 0.0 | 1.0 | 0.00 | 0.00 | 0.00 | 47 | 1001.2 |
| 20260505034351 | 57 | 247 | 0.0 | 0.0 | 0.00 | 0.00 | 0.00 | 46 | 1001.0 |
| 20260505033848 | 57 | 293 | 1.0 | 2.0 | 0.00 | 0.00 | 0.00 | 46 | 1001.0 |
| 20260505033345 | 57 | 245 | 0.0 | 0.0 | 0.00 | 0.00 | 0.00 | 46 | 1001.1 |
| 20260505032843 | 57 | 282 | 1.0 | 1.0 | 0.00 | 0.00 | 0.00 | 44 | 1001.0 |
| 20260505032340 | 57 | 258 | 0.0 | 0.0 | 0.00 | 0.00 | 0.00 | 44 | 1001.0 |
| 20260505031837 | 58 | 240 | 0.0 | 0.0 | 0.00 | 0.00 | 0.00 | 43 | 1001.2 |
| 20260505031333 | 58 | 262 | 1.0 | 1.0 | 0.00 | 0.00 | 0.00 | 43 | 1000.9 |
| 20260505030831 | 59 | 265 | 2.0 | 2.0 | 0.00 | 0.00 | 0.00 | 42 | 1000.8 |
| 20260505030327 | 59 | 299 | 5.0 | 6.0 | 0.00 | 0.00 | 0.00 | 40 | 1000.7 |
| 20260505025822 | 59 | 282 | 3.0 | 3.0 | 0.00 | 0.00 | 0.00 | 39 | 1000.6 |
| 20260505025320 | 60 | 330 | 3.0 | 5.0 | 0.00 | 0.00 | 0.00 | 38 | 1000.6 |
| 20260505024818 | 60 | 265 | 5.0 | 8.0 | 0.00 | 0.00 | 0.00 | 38 | 1000.4 |
| 20260505024316 | 60 | 257 | 3.0 | 3.0 | 0.00 | 0.00 | 0.00 | 38 | 1000.2 |
| 20260505023813 | 59 | 206 | 5.0 | 7.0 | 0.00 | 0.00 | 0.00 | 37 | 1000.0 |
| 20260505023309 | 60 | 281 | 2.0 | 5.0 | 0.00 | 0.00 | 0.00 | 37 | 999.7 |
| 20260505022807 | 60 | 312 | 4.0 | 7.0 | 0.00 | 0.00 | 0.00 | 37 | 999.6 |
| 20260505022304 | 60 | 69 | 3.0 | 3.0 | 0.00 | 0.00 | 0.00 | 38 | 999.5 |
| 20260505021801 | 60 | 263 | 3.0 | 5.0 | 0.00 | 0.00 | 0.00 | 37 | 999.2 |
| 20260505021257 | 60 | 326 | 3.0 | 6.0 | 0.00 | 0.00 | 0.00 | 37 | 999.2 |
| 20260505020753 | 60 | 281 | 1.0 | 2.0 | 0.00 | 0.00 | 0.00 | 38 | 998.6 |
| 20260505020248 | 61 | 314 | 3.0 | 3.0 | 0.00 | 0.00 | 0.00 | 38 | 998.5 |
| 20260505015746 | 61 | 240 | 0.0 | 0.0 | 0.00 | 0.00 | 0.00 | 39 | 998.3 |
| 20260505015243 | 61 | 264 | 3.0 | 5.0 | 0.00 | 0.00 | 0.00 | 38 | 998.5 |
| 20260505014740 | 61 | 355 | 6.0 | 8.0 | 0.00 | 0.00 | 0.00 | 38 | 998.4 |
| 20260505014237 | 61 | 256 | 0.0 | 1.0 | 0.00 | 0.00 | 0.00 | 40 | 998.4 |
| 20260505013734 | 62 | 238 | 2.0 | 3.0 | 0.00 | 0.00 | 0.00 | 41 | 998.3 |
| 20260505013231 | 62 | 253 | 4.0 | 6.0 | 0.00 | 0.00 | 0.00 | 41 | 998.4 |
| 20260505012729 | 62 | 269 | 3.0 | 5.0 | 0.00 | 0.00 | 0.00 | 41 | 998.4 |
| 20260505012226 | 63 | 287 | 1.0 | 3.0 | 0.00 | 0.00 | 0.00 | 40 | 998.2 |
| 20260505011722 | 63 | 295 | 5.0 | 9.0 | 0.00 | 0.00 | 0.00 | 39 | 998.3 |
| 20260505011219 | 63 | 262 | 5.0 | 8.0 | 0.00 | 0.00 | 0.00 | 39 | 998.3 |
| 20260505010714 | 64 | 249 | 3.0 | 3.0 | 0.00 | 0.00 | 0.00 | 39 | 998.2 |
| 20260505010212 | 64 | 275 | 6.0 | 9.0 | 0.00 | 0.00 | 0.00 | 39 | 998.1 |
| 20260505005708 | 64 | 312 | 4.0 | 6.0 | 0.00 | 0.00 | 0.00 | 40 | 998.1 |
| 20260505005205 | 64 | 279 | 3.0 | 5.0 | 0.00 | 0.00 | 0.00 | 39 | 997.8 |
| 20260505004702 | 65 | 324 | 5.0 | 8.0 | 0.00 | 0.00 | 0.00 | 39 | 997.6 |
| 20260505004158 | 65 | 314 | 5.0 | 7.0 | 0.00 | 0.00 | 0.00 | 38 | 997.2 |
| 20260505003656 | 66 | 276 | 12.0 | 15.0 | 0.00 | 0.00 | 0.00 | 39 | 997.0 |
| 20260505003153 | 66 | 194 | 3.0 | 5.0 | 0.00 | 0.00 | 0.00 | 39 | 996.9 |
| 20260505002649 | 67 | 309 | 9.0 | 11.0 | 0.00 | 0.00 | 0.00 | 39 | 996.9 |
| 20260505002148 | 68 | 285 | 4.0 | 7.0 | 0.00 | 0.00 | 0.00 | 39 | 996.8 |
| 20260505001644 | 68 | 306 | 6.0 | 8.0 | 0.00 | 0.00 | 0.00 | 39 | 996.9 |
| 20260505001142 | 69 | 333 | 3.0 | 3.0 | 0.00 | 0.00 | 0.00 | 36 | 996.5 |
| 20260505000639 | 69 | 285 | 4.0 | 5.0 | 0.00 | 0.00 | 0.00 | 36 | 996.5 |
| 20260505000137 | 70 | 246 | 1.0 | 2.0 | 0.00 | 0.00 | 0.00 | 36 | 996.6 |
| 20260504235632 | 70 | 236 | 4.0 | 7.0 | 0.00 | 0.00 | 0.00 | 37 | 996.4 |
| 20260504235129 | 70 | 260 | 4.0 | 7.0 | 0.00 | 0.00 | 0.00 | 37 | 996.5 |
| 20260504234626 | 70 | 338 | 8.0 | 11.0 | 0.00 | 0.00 | 0.00 | 37 | 996.3 |
| 20260504234124 | 71 | 285 | 5.0 | 7.0 | 0.00 | 0.00 | 0.00 | 38 | 996.2 |
| 20260504233619 | 71 | 300 | 5.0 | 8.0 | 0.00 | 0.00 | 0.00 | 40 | 996.0 |
| 20260504233115 | 72 | 225 | 1.0 | 3.0 | 0.00 | 0.00 | 0.00 | 40 | 996.0 |
| 20260504232614 | 73 | 321 | 11.0 | 14.0 | 0.00 | 0.00 | 0.00 | 39 | 995.9 |
| 20260504232110 | 73 | 266 | 4.0 | 5.0 | 0.00 | 0.00 | 0.00 | 41 | 995.8 |
| 20260504231607 | 74 | 282 | 0.0 | 1.0 | 0.00 | 0.00 | 0.00 | 41 | 995.9 |
| 20260504231103 | 75 | 278 | 4.0 | 6.0 | 0.00 | 0.00 | 0.00 | 38 | 995.8 |
| 20260504230558 | 75 | 269 | 3.0 | 5.0 | 0.00 | 0.00 | 0.00 | 38 | 995.7 |
| 20260504230059 | 75 | 342 | 9.0 | 10.0 | 0.00 | 0.00 | 0.00 | 37 | 995.5 |
| 20260504225555 | 75 | 281 | 7.0 | 9.0 | 0.00 | 0.00 | 0.00 | 38 | 995.6 |
| 20260504225052 | 76 | 251 | 3.0 | 5.0 | 0.00 | 0.00 | 0.00 | 38 | 995.6 |
| 20260504224548 | 76 | 264 | 5.0 | 6.0 | 0.00 | 0.00 | 0.00 | 39 | 995.3 |
| 20260504224046 | 77 | 347 | 9.0 | 15.0 | 0.00 | 0.00 | 0.00 | 38 | 995.3 |
| 20260504223543 | 77 | 295 | 5.0 | 7.0 | 0.00 | 0.00 | 0.00 | 39 | 995.3 |
| 20260504223038 | 78 | 282 | 7.0 | 9.0 | 0.00 | 0.00 | 0.00 | 36 | 995.3 |
| 20260504222535 | 78 | 279 | 3.0 | 5.0 | 0.00 | 0.00 | 0.00 | 33 | 995.2 |
| 20260504222033 | 78 | 202 | 5.0 | 8.0 | 0.00 | 0.00 | 0.00 | 33 | 995.0 |
| 20260504221530 | 78 | 248 | 3.0 | 5.0 | 0.00 | 0.00 | 0.00 | 32 | 995.0 |
| 20260504221027 | 78 | 206 | 4.0 | 6.0 | 0.00 | 0.00 | 0.00 | 32 | 995.1 |
| 20260504220523 | 79 | 209 | 4.0 | 7.0 | 0.00 | 0.00 | 0.00 | 32 | 995.0 |
| 20260504220021 | 78 | 279 | 1.0 | 5.0 | 0.00 | 0.00 | 0.00 | 32 | 995.0 |
| 20260504215517 | 79 | 269 | 5.0 | 8.0 | 0.00 | 0.00 | 0.00 | 31 | 995.0 |
| 20260504215014 | 79 | 258 | 4.0 | 7.0 | 0.00 | 0.00 | 0.00 | 32 | 995.0 |
| 20260504214510 | 79 | 237 | 4.0 | 6.0 | 0.00 | 0.00 | 0.00 | 33 | 995.0 |
| 20260504214006 | 78 | 197 | 1.0 | 2.0 | 0.00 | 0.00 | 0.00 | 32 | 995.0 |
| 20260504213503 | 79 | 229 | 3.0 | 6.0 | 0.00 | 0.00 | 0.00 | 31 | 995.1 |
| 20260504213001 | 79 | 284 | 9.0 | 13.0 | 0.00 | 0.00 | 0.00 | 30 | 995.0 |
| 20260504212456 | 78 | 256 | 7.0 | 9.0 | 0.00 | 0.00 | 0.00 | 32 | 995.4 |
| 20260504211954 | 79 | 208 | 4.0 | 6.0 | 0.00 | 0.00 | 0.00 | 32 | 995.2 |
| 20260504211450 | 79 | 154 | 4.0 | 7.0 | 0.00 | 0.00 | 0.00 | 33 | 995.4 |
| 20260504210948 | 77 | 208 | 8.0 | 11.0 | 0.00 | 0.00 | 0.00 | 32 | 995.4 |
| 20260504210444 | 77 | 260 | 4.0 | 6.0 | 0.00 | 0.00 | 0.00 | 33 | 995.5 |
| 20260504205941 | 78 | 260 | 9.0 | 13.0 | 0.00 | 0.00 | 0.00 | 32 | 995.4 |
| 20260504205439 | 78 | 242 | 11.0 | 16.0 | 0.00 | 0.00 | 0.00 | 31 | 995.2 |
| 20260504204937 | 78 | 244 | 7.0 | 9.0 | 0.00 | 0.00 | 0.00 | 32 | 995.7 |
| 20260504204435 | 79 | 292 | 5.0 | 9.0 | 0.00 | 0.00 | 0.00 | 31 | 995.4 |
| 20260504203934 | 79 | 207 | 7.0 | 10.0 | 0.00 | 0.00 | 0.00 | 31 | 995.6 |
| 20260504203431 | 78 | 246 | 4.0 | 7.0 | 0.00 | 0.00 | 0.00 | 32 | 995.6 |
| 20260504202927 | 79 | 232 | 4.0 | 6.0 | 0.00 | 0.00 | 0.00 | 32 | 995.6 |
| 20260504202424 | 78 | 257 | 5.0 | 7.0 | 0.00 | 0.00 | 0.00 | 32 | 995.7 |
| 20260504201920 | 78 | 265 | 5.0 | 10.0 | 0.00 | 0.00 | 0.00 | 32 | 995.6 |
| 20260504201418 | 78 | 260 | 3.0 | 6.0 | 0.00 | 0.00 | 0.00 | 34 | 995.8 |
| 20260504200915 | 78 | 205 | 5.0 | 7.0 | 0.00 | 0.00 | 0.00 | 33 | 995.6 |
| 20260504200412 | 78 | 272 | 10.0 | 15.0 | 0.00 | 0.00 | 0.00 | 33 | 995.8 |
| 20260504195908 | 78 | 268 | 6.0 | 9.0 | 0.00 | 0.00 | 0.00 | 33 | 996.0 |
| 20260504195404 | 78 | 263 | 8.0 | 11.0 | 0.00 | 0.00 | 0.00 | 33 | 995.9 |
| 20260504194901 | 78 | 235 | 14.0 | 17.0 | 0.00 | 0.00 | 0.00 | 34 | 996.3 |
| 20260504194357 | 79 | 271 | 2.0 | 5.0 | 0.00 | 0.00 | 0.00 | 34 | 996.4 |
| 20260504193853 | 79 | 186 | 5.0 | 7.0 | 0.00 | 0.00 | 0.00 | 32 | 995.9 |
| 20260504193350 | 79 | 239 | 3.0 | 3.0 | 0.00 | 0.00 | 0.00 | 33 | 996.0 |
| 20260504192849 | 78 | 211 | 0.0 | 1.0 | 0.00 | 0.00 | 0.00 | 34 | 996.3 |
| 20260504192346 | 78 | 240 | 4.0 | 6.0 | 0.00 | 0.00 | 0.00 | 33 | 996.4 |
| 20260504191844 | 78 | 248 | 6.0 | 8.0 | 0.00 | 0.00 | 0.00 | 33 | 996.3 |
| 20260504191342 | 77 | 216 | 8.0 | 14.0 | 0.00 | 0.00 | 0.00 | 33 | 996.7 |
| 20260504190838 | 78 | 256 | 6.0 | 7.0 | 0.00 | 0.00 | 0.00 | 33 | 996.6 |
| 20260504190333 | 78 | 274 | 5.0 | 7.0 | 0.00 | 0.00 | 0.00 | 34 | 996.5 |
| 20260504185830 | 77 | 298 | 13.0 | 20.0 | 0.00 | 0.00 | 0.00 | 33 | 996.7 |
| 20260504185327 | 77 | 221 | 7.0 | 8.0 | 0.00 | 0.00 | 0.00 | 33 | 996.6 |
| 20260504184823 | 77 | 196 | 8.0 | 14.0 | 0.00 | 0.00 | 0.00 | 33 | 996.7 |
| 20260504184319 | 78 | 218 | 1.0 | 3.0 | 0.00 | 0.00 | 0.00 | 34 | 996.8 |
| 20260504183815 | 77 | 351 | 5.0 | 7.0 | 0.00 | 0.00 | 0.00 | 33 | 996.5 |
| 20260504183313 | 78 | 244 | 8.0 | 11.0 | 0.00 | 0.00 | 0.00 | 32 | 996.9 |
| 20260504182811 | 78 | 321 | 0.0 | 1.0 | 0.00 | 0.00 | 0.00 | 33 | 996.6 |
| 20260504182308 | 77 | 153 | 7.0 | 10.0 | 0.00 | 0.00 | 0.00 | 33 | 996.6 |
| 20260504181805 | 77 | 206 | 2.0 | 3.0 | 0.00 | 0.00 | 0.00 | 33 | 996.9 |
| 20260504181302 | 77 | 245 | 9.0 | 14.0 | 0.00 | 0.00 | 0.00 | 32 | 996.7 |
| 20260504180801 | 77 | 233 | 4.0 | 7.0 | 0.00 | 0.00 | 0.00 | 31 | 996.8 |
| 20260504180259 | 77 | 251 | 8.0 | 13.0 | 0.00 | 0.00 | 0.00 | 32 | 996.7 |
| 20260504175757 | 77 | 233 | 0.0 | 1.0 | 0.00 | 0.00 | 0.00 | 32 | 996.8 |
| 20260504175253 | 77 | 196 | 5.0 | 6.0 | 0.00 | 0.00 | 0.00 | 32 | 996.6 |
| 20260504174751 | 76 | 200 | 1.0 | 1.0 | 0.00 | 0.00 | 0.00 | 33 | 996.6 |
| 20260504174249 | 77 | 261 | 7.0 | 15.0 | 0.00 | 0.00 | 0.00 | 31 | 996.8 |
| 20260504173745 | 77 | 251 | 2.0 | 3.0 | 0.00 | 0.00 | 0.00 | 33 | 996.8 |